Location: *
(55.5817°S, 142.4781°W)
Time: 06:28:14
(UTC+00:00)

CZ-2D R/B - Pass Details

Date: 29 April 2025
Orbit: 524 x 605 km, 98.0° (Epoch: 23 May)

Event Time Altitude Azimuth Distance (km) Brightness Sun altitude
Rises 15:23:47 0° 359° (N) 2,672 6.9 -12.6°
Reaches altitude 10° 15:25:57 10° 352° (N) 1,789 5.9 -12.2°
Maximum altitude 15:29:38 43° 279° (W) 768 3.6 -11.7°
Drops below altitude 10° 15:33:24 10° 206° (SSW) 1,822 5.6 -11.2°
Sets 15:35:38 0° 199° (SSW) 2,728 6.6 -10.9°
